User: anonymous   Login
Location: Unspecified
(0.0000°N, 0.0000°E)
Time: 21:42:33
(UTC+00:00)
Language:

BUGSAT 1 - Orbit

View from above orbital plane
View from above orbital plane
View from above satellite
View from above satellite

Ground track
Ground track

The orbit data is extracted from the following two-line orbital elements,

1 40014U 14033E   23083.25809179  .00006328  00000-0  52729-3 0  9994
2 40014  98.1458  98.4377 0029896 185.9128 174.1760 14.98663527478019
Epoch (UTC): 24 March 2023 06:11:39
Eccentricity: 0.0029896
inclination: 98.1458°
perigee height: 550 km
apogee height: 592 km
right ascension of ascending node: 98.4377°
argument of perigee: 185.9128°
revolutions per day: 14.98663527
mean anomaly at epoch: 174.1760°
orbit number at epoch: 47801

The dashed part of the orbit path shows where the satellite is in the earth's shadow,  

DLR